Weather reports worldwide

Advertisment
Valley, United Kingdom (3302): temperature & dewpoint: 01.06.2020 03:00:00 - 07.06.2020 03:00:00 (BST)Valley, United Kingdom (3302): temperature -20cm & temperature -100cm: 01.06.2020 03:00:00 - 07.06.2020 03:00:00 (BST)Valley, United Kingdom (3302): wind speed & gusts: 01.06.2020 03:00:00 - 07.06.2020 03:00:00 (BST)Valley, United Kingdom (3302): wind direction: 01.06.2020 03:00:00 - 07.06.2020 03:00:00 (BST)Valley, United Kingdom (3302): reduced air pressure: 01.06.2020 03:00:00 - 07.06.2020 03:00:00 (BST)Valley, United Kingdom (3302): visibility: 01.06.2020 03:00:00 - 07.06.2020 03:00:00 (BST)Valley, United Kingdom (3302): sunshine duration: 01.06.2020 03:00:00 - 07.06.2020 03:00:00 (BST)Valley, United Kingdom (3302): precipitation: 01.06.2020 03:00:00 - 07.06.2020 03:00:00 (BST)
Date & Time tt [°C] td [°C] tt -20cm [°C] tt -100cm [°C] ff [km/h] ff [kn] fx [km/h] fx [kn] dd ppp [hPa] vv [km] sd [min] rr [mm]
07.06.2020 03:00:00 11,3 9,2 - - 18 10 - - WNW 1006,1 12 0 0,0
07.06.2020 02:00:00 11,5 9,1 - - 11 6 - - WNW 1006,0 15 0 0,0
07.06.2020 01:00:00 11,6 9,1 - - 15 8 - - NW 1005,5 15 - 0,0
07.06.2020 00:00:00 11,6 9,1 - - 13 7 - - NW 1005,0 17 0 0,0
06.06.2020 23:00:00 11,6 9,3 - - 15 8 - - WNW 1004,8 16 0 0,0
06.06.2020 22:00:00 11,8 9,3 - - 13 7 - - NW 1004,2 20 0 0,0
06.06.2020 21:00:00 12,0 9,2 - - 16 9 - - NW 1003,5 21 6 0,0
06.06.2020 20:00:00 12,8 9,4 - - 22 12 - - NW 1003,1 24 18 0,0
06.06.2020 19:00:00 12,4 9,1 - - 26 14 - - NW 1002,5 22 0 0,0
06.06.2020 18:00:00 12,8 8,7 - - 29 16 48 26 NW 1001,9 22 0 0,0
06.06.2020 17:00:00 13,5 9,2 - - 35 19 48 26 NW 1001,4 10 18 0,0
06.06.2020 16:00:00 12,9 9,0 - - 34 18 50 27 NW 1001,1 17 0 0,0
06.06.2020 15:00:00 13,4 9,5 - - 35 19 55 30 NW 1000,6 18 24 0,0
06.06.2020 14:00:00 12,5 9,8 - - 34 18 54 29 NW 1000,0 18 0 0,0
06.06.2020 13:00:00 12,2 10,1 - - 37 20 50 27 NW 999,7 15 0 0,6
06.06.2020 12:00:00 11,1 9,6 - - 35 19 50 27 NW 998,7 4,8 0 0,0
06.06.2020 11:00:00 10,5 9,5 - - 29 16 54 29 WNW 998,0 4,2 0 0,6
06.06.2020 10:00:00 10,3 9,0 15,7 14,0 34 18 55 30 WNW 997,7 2,8 0 0,4
06.06.2020 09:00:00 10,0 9,0 - - 37 20 59 32 WNW 997,1 2,6 0 0,6
06.06.2020 08:00:00 9,8 8,5 - - 41 22 63 34 WNW 996,5 7 0 1,2
06.06.2020 07:00:00 8,9 7,6 - - 48 26 72 39 W 996,5 5 0 0,2
06.06.2020 06:00:00 8,5 5,8 - - 48 26 67 36 W 996,8 9 0 0,0
06.06.2020 05:00:00 8,6 5,1 - - 46 25 68 37 W 997,4 13 0 0,0
06.06.2020 04:00:00 8,7 4,4 - - 44 24 63 34 W 998,1 10 0 0,0
06.06.2020 03:00:00 8,6 4,1 - - 44 24 63 34 W 998,6 10 0 0,0
06.06.2020 02:00:00 8,6 3,2 - - 42 23 61 33 WNW 999,4 20 0 0,0
06.06.2020 01:00:00 8,9 3,5 - - 37 20 55 30 WNW 999,7 10 - 0,0
06.06.2020 00:00:00 8,9 3,1 - - 39 21 57 31 WNW 1000,1 22 0 0,0
05.06.2020 23:00:00 9,3 3,9 - - 34 18 48 26 WNW 1000,0 20 0 0,0
05.06.2020 22:00:00 9,8 2,6 - - 26 14 52 28 NW 1000,1 10 12 0,0
05.06.2020 21:00:00 10,7 2,8 - - 34 18 57 31 WNW 1000,0 25 30 0,0
05.06.2020 20:00:00 11,5 3,1 - - 28 15 48 26 NW 999,9 27 36 0,0
05.06.2020 19:00:00 12,6 3,5 - - 34 18 52 28 NW 999,5 27 60 0,0
05.06.2020 18:00:00 13,4 3,4 - - 31 17 46 25 NW 999,5 30 60 0,0
05.06.2020 17:00:00 14,0 3,2 - - 31 17 50 27 NW 999,7 29 54 0,0
05.06.2020 16:00:00 12,8 3,7 - - 22 12 - - NNW 999,7 10 60 0,0
05.06.2020 15:00:00 13,3 3,1 - - 28 15 - - NW 999,9 10 48 0,0
05.06.2020 14:00:00 13,4 3,5 - - 34 18 46 25 WNW 1000,0 10 42 0,0
05.06.2020 13:00:00 12,6 4,5 - - 29 16 46 25 NW 999,9 10 36 0,4
05.06.2020 12:00:00 13,1 4,8 - - 34 18 48 26 WNW 999,8 10 48 0,0
05.06.2020 11:00:00 12,6 3,4 - - 35 19 50 27 NW 999,8 10 54 0,0
05.06.2020 10:00:00 11,7 3,4 15,5 14,2 37 20 54 29 NW 999,6 10 54 0,0
05.06.2020 09:00:00 11,4 4,7 - - 31 17 - - NW 999,6 10 24 0,0
05.06.2020 08:00:00 10,6 3,9 - - 31 17 48 26 NW 999,5 50 0 0,0
05.06.2020 07:00:00 10,4 4,7 - - 28 15 48 26 NW 999,3 10 6 0,0
05.06.2020 06:00:00 10,0 4,0 - - 29 16 52 28 NW 999,2 10 0 0,0
05.06.2020 05:00:00 10,3 4,0 - - 28 15 50 27 NW 999,1 27 0 0,0
05.06.2020 04:00:00 10,4 4,9 - - 31 17 50 27 NW 999,1 10 0 0,0
05.06.2020 03:00:00 10,7 4,7 - - 29 16 - - NW 999,6 29 0 0,0
05.06.2020 02:00:00 10,7 5,2 - - 29 16 - - NW 1000,1 28 0 0,0
05.06.2020 01:00:00 10,9 5,5 - - 26 14 - - NW 1000,5 10 - 0,0
05.06.2020 00:00:00 11,1 6,0 - - 22 12 - - NW 1000,8 28 0 0,0
04.06.2020 23:00:00 11,4 8,2 - - 13 7 - - NNW 1001,0 30 0 0,0
04.06.2020 22:00:00 11,7 8,2 - - 4 2 - - N 1001,1 10 0 0,0
04.06.2020 21:00:00 12,3 8,8 - - 15 8 - - N 1001,1 10 0 0,0
04.06.2020 20:00:00 12,8 10,8 - - 15 8 - - W 1001,1 25 0 0,0
04.06.2020 19:00:00 12,8 10,3 - - 21 11 - - SW 1001,5 10 0 0,0
04.06.2020 18:00:00 13,4 10,2 - - 21 11 - - SW 1001,9 27 0 0,0
04.06.2020 17:00:00 13,1 9,7 - - 18 10 - - W 1002,6 23 0 0,0
04.06.2020 16:00:00 13,7 9,8 - - 24 13 - - W 1003,2 10 0 0,0
04.06.2020 15:00:00 13,0 9,4 - - 22 12 - - W 1004,0 10 0 0,0
04.06.2020 14:00:00 12,8 9,1 - - 28 15 - - W 1004,8 10 0 0,0
04.06.2020 13:00:00 11,7 9,3 - - 22 12 - - WNW 1005,4 10 0 0,0
04.06.2020 12:00:00 11,8 10,0 - - 24 13 - - W 1005,8 10 0 0,0
04.06.2020 11:00:00 10,8 9,8 - - 21 11 - - WNW 1006,5 10 0 0,0
04.06.2020 10:00:00 11,1 8,5 16,4 14,2 16 9 - - WNW 1007,1 10 0 0,0
04.06.2020 09:00:00 11,0 6,9 - - 18 10 - - NW 1007,5 10 6 0,0
04.06.2020 08:00:00 11,5 6,0 - - 18 10 - - NW 1007,9 10 6 0,0
04.06.2020 07:00:00 10,4 5,7 - - 21 11 - - NW 1008,3 10 0 0,0
04.06.2020 06:00:00 10,2 6,5 - - 18 10 - - NNW 1008,6 22 0 0,0
04.06.2020 05:00:00 9,9 6,7 - - 16 9 - - NNW 1009,1 20 0 0,0
04.06.2020 04:00:00 10,4 7,2 - - 22 12 - - NNW 1009,9 20 0 0,0
04.06.2020 03:00:00 10,1 6,7 - - 21 11 - - NNW 1010,2 21 0 0,0
04.06.2020 02:00:00 9,6 6,9 - - 15 8 - - NNW 1011,3 10 0 0,0
04.06.2020 01:00:00 10,5 7,3 - - 22 12 - - N 1012,1 17 - 0,0
04.06.2020 00:00:00 10,6 7,7 - - 22 12 - - N 1012,4 17 0 0,0
03.06.2020 23:00:00 11,0 7,7 - - 18 10 - - N 1013,0 20 0 0,0
03.06.2020 22:00:00 11,3 7,8 - - 21 11 - - NNW 1013,0 23 18 0,0
03.06.2020 21:00:00 12,3 6,9 - - 21 11 - - N 1013,0 10 60 0,0
03.06.2020 20:00:00 13,3 6,4 - - 24 13 - - N 1013,2 29 60 0,0
03.06.2020 19:00:00 13,5 5,8 - - 31 17 48 26 N 1013,2 30 60 0,0
03.06.2020 18:00:00 13,7 5,0 - - 37 20 54 29 NNE 1013,2 35 60 0,0
03.06.2020 17:00:00 13,9 7,6 - - 37 20 52 28 N 1013,6 30 0 0,0
03.06.2020 16:00:00 11,8 8,9 - - 26 14 - - NNE 1013,8 10 0 0,0
03.06.2020 15:00:00 11,5 9,0 - - 29 16 - - N 1013,7 10 0 0,0
03.06.2020 14:00:00 11,5 9,3 - - 34 18 48 26 N 1013,4 12 0 0,0
03.06.2020 13:00:00 11,7 10,3 - - 37 20 50 27 N 1013,4 8 0 0,0
03.06.2020 12:00:00 11,4 10,1 - - 37 20 48 26 NNE 1013,0 10 0 0,0
03.06.2020 11:00:00 12,2 10,3 - - 37 20 - - NNE 1012,5 12 0 0,0
03.06.2020 10:00:00 12,8 11,2 19,2 14,2 31 17 - - NNE 1012,0 10 0 0,0
03.06.2020 09:00:00 13,0 11,7 - - 22 12 - - NNE 1011,7 10 0 0,0
03.06.2020 08:00:00 12,3 11,2 - - 18 10 - - N 1011,9 15 0 0,0
03.06.2020 07:00:00 12,1 11,2 - - 21 11 - - NNW 1012,2 9 0 0,0
03.06.2020 06:00:00 12,1 11,2 - - 22 12 - - NNW 1012,5 7 0 0,0
03.06.2020 05:00:00 12,8 12,0 - - 18 10 - - N 1012,6 5 0 0,4
03.06.2020 04:00:00 12,9 11,9 - - 15 8 - - N 1012,9 8 0 0,2
03.06.2020 03:00:00 12,8 11,6 - - 15 8 - - N 1013,4 9 0 0,6
03.06.2020 02:00:00 13,4 11,2 - - 15 8 - - N 1014,0 10 0 0,0
03.06.2020 01:00:00 14,1 11,9 - - 18 10 - - NNW 1014,6 8 - 0,0
03.06.2020 00:00:00 14,3 10,2 - - 5 3 - - NNE 1015,1 10 0 0,0
02.06.2020 23:00:00 15,2 9,3 - - 4 2 - - N 1015,7 15 0 0,0
02.06.2020 22:00:00 15,0 8,4 - - 4 2 - - W 1015,8 30 0 0,0
02.06.2020 21:00:00 15,4 9,5 - - 9 5 - - SW 1016,2 30 6 0,0
02.06.2020 20:00:00 16,5 8,5 - - 11 6 - - SSW 1016,3 30 24 0,0
02.06.2020 19:00:00 20,7 7,0 - - 11 6 - - W 1017,0 35 54 0,0
02.06.2020 18:00:00 21,8 6,0 - - 13 7 - - SW 1017,5 35 48 0,0
02.06.2020 17:00:00 22,5 6,5 - - 8 4 - - W 1018,3 10 18 0,0
02.06.2020 16:00:00 23,0 6,1 - - 15 8 - - W 1019,1 10 60 0,0
02.06.2020 15:00:00 22,4 6,7 - - 13 7 - - NNW 1019,8 10 60 0,0
02.06.2020 14:00:00 22,1 5,9 - - 15 8 - - NNW 1020,5 10 60 0,0
02.06.2020 13:00:00 21,7 6,1 - - 16 9 - - NNW 1021,0 10 60 0,0
02.06.2020 12:00:00 21,0 7,7 - - 16 9 - - NNW 1021,6 10 60 0,0
02.06.2020 11:00:00 20,5 9,5 - - 16 9 - - NNW 1021,9 35 60 0,0
02.06.2020 10:00:00 18,5 10,6 - - 5 3 - - NNW 1022,1 40 60 -
02.06.2020 09:00:00 17,4 12,3 - - 5 3 - - NW 1022,3 40 60 -
02.06.2020 08:00:00 14,9 11,0 - - 4 2 - - WSW 1022,4 50 60 0,0
02.06.2020 07:00:00 12,7 10,6 - - 4 2 - - W 1022,7 10 42 0,0
02.06.2020 06:00:00 11,1 9,2 - - 2 1 - - NNW 1022,5 10 0 0,0
02.06.2020 05:00:00 11,6 9,4 - - 9 5 - - N 1022,5 - 0 0,0
02.06.2020 04:00:00 12,2 9,2 - - 11 6 - - N 1022,8 - 0 0,0
02.06.2020 03:00:00 12,2 8,4 - - 11 6 - - N 1023,1 26 0 0,0
02.06.2020 02:00:00 12,7 8,4 - - 11 6 - - N 1023,3 26 0 0,0
02.06.2020 01:00:00 12,4 7,9 - - 11 6 - - N 1023,8 25 - 0,0
02.06.2020 00:00:00 13,0 7,4 - - 9 5 - - N 1024,2 26 0 0,0
01.06.2020 23:00:00 14,1 7,0 - - 5 3 - - NE 1024,2 26 0 0,0
01.06.2020 22:00:00 15,4 7,1 - - 9 5 - - N 1024,2 10 18 0,0
01.06.2020 21:00:00 17,8 6,4 - - 13 7 - - N 1023,9 25 60 0,0
01.06.2020 20:00:00 19,0 6,0 - - 16 9 - - N 1023,8 30 60 0,0
01.06.2020 19:00:00 19,7 6,9 - - 21 11 - - NNE 1023,9 30 60 0,0
01.06.2020 18:00:00 20,2 6,6 - - 21 11 - - N 1024,1 28 60 0,0
01.06.2020 17:00:00 21,3 7,5 - - 22 12 - - NNE 1024,1 27 60 0,0
01.06.2020 16:00:00 21,5 7,0 - - 24 13 - - NNE 1024,3 50 60 0,0
01.06.2020 15:00:00 21,8 6,0 - - 24 13 - - ENE 1024,6 10 60 0,0
01.06.2020 14:00:00 21,4 5,7 - - 22 12 - - NE 1024,9 10 60 0,0
01.06.2020 13:00:00 21,0 6,2 - - 21 11 - - NE 1025,1 10 60 0,0
01.06.2020 12:00:00 20,8 6,7 - - 16 9 - - NE 1025,1 10 60 0,0
01.06.2020 11:00:00 19,9 6,9 - - 15 8 - - NE 1025,2 10 60 0,0
01.06.2020 10:00:00 20,1 7,2 18,5 13,9 11 6 - - E 1025,3 50 60 0,0
01.06.2020 09:00:00 19,2 7,8 - - 15 8 - - E 1025,4 10 60 0,0
01.06.2020 08:00:00 17,0 8,4 - - 9 5 - - ENE 1025,3 10 60 0,0
01.06.2020 07:00:00 13,6 9,3 - - 4 2 - - NW 1025,1 50 60 0,0
01.06.2020 06:00:00 11,7 8,1 - - 9 5 - - N 1024,8 - 6 0,0
01.06.2020 05:00:00 12,5 7,5 - - 8 4 - - NE 1024,5 28 0 0,0
01.06.2020 04:00:00 13,0 6,6 - - 5 3 - - NE 1024,3 28 0 0,0
01.06.2020 03:00:00 13,7 7,9 - - 9 5 - - NE 1023,8 28 0 0,0

tt = temperature
td = dewpoint
tt -20cm = temperature -20cm
tt -100cm = temperature -100cm
ff = wind speed
fx = gusts
dd = wind direction
ppp = reduced air pressure
vv = visibility
sd = sunshine duration
rr = precipitation

Next stations